Vorticity
6 12 18 4 6 7 7 7 7 7 7 10 11 12 10 8 8 14 14 14 11 5 35 1 15 6 2 9 11 14 29 1 26 15 12 5 -0 5 -3 33 -1 7 30 6 3 23 14 -20 9 25 -5 4 8 13
9 22 7 5 6 7 7 7 7 7 8 10 12 11 9 8 7 14 19 12 11 7 1 28 22 -4 6 17 1 4 -12 -1 23 4 -6 15 -10 31 -2 25 0 -0 23 11 6 5 7 -0 29 4 11 12 8 12
12 19 4 4 7 7 6 6 7 7 8 11 12 10 9 7 8 15 20 10 12 13 21 3 14 14 12 9 5 3 5 20 14 10 -3 14 19 8 14 4 5 2 7 19 27 -12 7 39 -33 18 10 10 15 9
20 8 4 6 5 7 4 8 7 8 8 12 11 10 9 8 10 16 20 11 14 13 20 2 13 19 20 6 5 7 16 12 20 30 13 10 6 15 4 -3 8 9 13 2 7 -1 40 -31 18 19 9 14 14 7
18 7 4 5 8 5 5 8 8 8 8 12 12 10 8 9 12 15 21 14 14 7 8 13 23 8 8 12 4 24 3 7 41 13 19 15 8 12 11 13 11 10 3 2 -1 3 10 9 15 13 12 13 8 7
22 2 7 6 6 5 8 7 8 8 9 13 11 10 9 9 12 17 20 14 6 10 11 24 10 9 3 13 17 11 -6 5 19 42 21 15 12 1 14 10 -1 4 3 1 1 8 7 14 13 9 11 12 8 16
5 7 4 7 3 8 7 7 8 9 10 12 11 10 10 10 16 20 12 10 10 9 15 19 12 -6 16 22 9 13 14 -6 14 32 19 26 19 11 13 8 1 5 7 8 8 8 16 15 15 14 14 12 16 20
9 3 8 3 6 8 7 8 8 9 11 11 11 10 11 12 19 17 8 13 13 14 23 10 2 19 7 19 5 2 6 9 1 -1 27 28 17 26 13 10 14 11 11 13 14 14 17 14 13 16 16 16 18 20
2 8 4 5 9 8 8 8 9 10 11 12 11 11 11 20 11 14 18 14 17 16 13 4 6 19 1 16 13 13 9 9 -7 19 7 4 29 4 21 22 19 18 19 22 20 17 18 20 25 23 21 25 25 25
9 6 3 8 9 8 9 9 10 10 12 11 11 11 21 5 25 23 23 17 15 15 10 0 9 14 13 15 12 18 7 10 9 1 9 -3 11 19 21 21 22 21 20 19 21 22 26 27 22 20 21 18 14 12
5 3 8 9 8 9 9 11 11 11 11 10 10 11 18 26 29 18 12 11 12 13 6 -13 10 17 17 9 8 14 9 9 11 -1 8 2 6 13 16 22 22 22 21 22 19 15 12 10 10 12 11 9 8 7
4 7 9 9 9 10 11 11 11 14 11 11 12 22 25 21 12 12 11 13 14 13 -6 -28 10 20 15 15 14 10 11 11 12 13 13 4 13 14 16 16 14 13 14 13 12 9 8 8 5 6 8 8 9 8
8 9 10 10 11 12 12 12 13 11 11 9 27 21 22 10 12 3 -14 -7 -9 -23 6 27 33 16 17 10 10 11 11 14 10 11 8 11 13 13 15 16 16 13 8 9 10 11 11 9 7 8 9 9 9 10
9 10 10 12 12 11 13 13 11 13 10 24 22 14 12 10 -14 1 14 21 19 31 29 30 18 10 12 13 10 11 14 11 9 11 17 11 12 11 13 12 12 12 12 11 10 8 10 10 11 11 12 11 12 15
11 13 13 11 11 14 11 11 12 10 11 24 22 9 -11 -0 8 9 15 27 35 26 25 16 12 9 11 7 13 11 10 12 14 22 10 8 11 13 17 17 16 17 17 16 15 16 16 15 17 15 16 17 18 12
13 12 10 13 11 9 12 11 10 11 25 19 1 6 6 6 8 12 22 30 29 19 15 9 12 16 9 9 13 10 11 14 28 8 10 9 11 15 13 9 5 8 8 3 -1 1 1 1 4 6 6 4 1 5
10 13 10 8 10 11 12 12 11 26 13 2 4 5 8 5 7 15 32 28 24 15 9 2 14 8 12 12 13 12 14 27 12 9 10 13 13 9 2 9 11 12 7 8 8 10 11 10 7 9 10 12 13 13
9 7 11 9 11 9 11 13 22 17 1 7 9 9 7 5 9 18 30 27 23 17 10 1 8 11 5 12 16 15 34 13 9 11 13 10 10 8 11 4 7 8 9 10 9 8 10 8 6 8 10 12 12 13
10 8 9 10 11 12 17 17 12 14 9 -0 8 13 9 5 7 15 32 28 23 15 8 14 6 14 14 6 22 31 10 11 11 11 12 8 6 4 6 7 8 12 11 7 10 11 12 11 11 12 13 14 12 12
7 8 8 10 10 13 18 11 15 16 -2 6 13 10 10 6 4 13 32 23 19 15 11 7 8 5 20 17 27 14 9 10 10 11 6 4 5 7 9 11 10 11 12 14 15 15 15 14 14 15 14 13 13 13
8 6 11 11 13 16 21 10 10 4 7 13 8 9 11 7 6 12 19 25 16 14 15 10 4 4 16 31 28 9 9 9 11 4 8 8 8 10 9 10 10 11 14 16 14 13 14 12 12 12 12 13 12 13
6 10 12 8 15 16 14 13 7 6 12 9 11 9 17 10 6 13 12 16 36 19 12 17 12 13 37 23 11 10 12 9 5 9 8 6 9 10 10 10 11 11 9 11 14 15 14 14 13 13 13 12 11 11
10 12 13 13 15 19 4 12 11 7 9 5 10 12 17 8 7 14 15 14 26 35 24 18 19 34 19 11 11 11 11 5 7 7 7 10 10 11 11 11 12 12 12 10 10 12 14 15 14 13 12 12 12 12
11 16 13 11 9 6 11 12 8 9 8 14 12 13 11 11 10 14 13 15 19 30 33 30 29 18 12 11 13 10 7 6 7 6 8 9 9 10 11 12 11 11 11 13 15 14 11 9 9 12 14 15 14 13
8 22 17 7 6 9 14 13 10 10 12 10 12 16 7 14 9 13 15 14 19 20 21 19 16 14 11 11 12 9 6 6 5 4 4 5 10 10 9 8 7 7 6 7 7 6 7 7 9 11 10 8 9 11
14 12 12 5 6 19 9 10 18 9 10 14 16 9 7 15 16 8 16 15 14 15 15 14 13 13 12 14 14 11 5 7 9 8 7 8 9 9 8 7 8 8 9 11 10 9 8 9 9 8 9 10 10 9
7 10 7 11 16 16 15 17 14 12 12 19 12 10 19 12 12 7 16 16 15 12 13 14 13 11 11 11 9 8 11 11 9 7 8 8 9 10 9 9 8 8 8 8 9 10 10 11 10 9 9 9 9 9
4 11 14 10 16 18 15 15 16 16 19 15 15 13 11 8 4 10 11 20 14 14 13 12 12 12 12 11 11 13 14 12 8 7 8 10 10 9 8 7 7 8 8 8 9 9 9 9 8 8 8 8 8 8
10 12 14 15 16 16 15 17 9 9 4 8 11 13 6 9 7 8 9 10 19 13 13 12 11 11 10 11 13 14 13 12 8 8 8 10 7 8 8 10 10 10 8 7 7 7 8 8 7 7 7 7 7 7
10 11 12 14 16 16 16 13 10 11 9 4 4 8 10 15 14 12 7 8 8 15 12 10 11 11 11 11 13 16 14 11 9 6 6 6 8 9 9 9 9 9 9 9 7 7 8 8 8 8 8 8 8 8
11 10 13 14 15 18 14 14 13 13 14 13 12 7 5 6 12 18 14 16 10 7 12 19 11 11 10 9 9 9 10 11 11 10 9 8 8 8 9 10 11 11 10 10 9 8 9 9 9 9 10 10 10 10
15 10 13 13 16 13 15 14 13 16 20 15 15 19 18 12 8 8 20 13 17 19 9 13 19 12 10 9 10 11 11 10 11 12 11 11 10 8 6 8 10 11 11 12 10 10 11 11 11 10 8 7 6 7
19 16 14 12 13 15 13 14 15 17 21 22 24 22 19 23 18 10 15 15 18 17 24 20 14 14 12 10 10 10 8 7 8 9 10 11 11 9 9 10 11 10 10 12 10 11 12 10 8 6 5 6 6 6
Height
3071 3071 3070 3070 3070 3068 3066 3063 3060 3057 3054 3050 3046 3041 3035 3031 3027 3023 3018 3015 3011 3007 3004 3001 2999 2996 2993 2990 2987 2986 2984 2981 2977 2975 2974 2974 2971 2970 2967 2964 2961 2957 2952 2948 2946 2945 2944 2938 2930 2928 2934 2927 2920 2917
3065 3065 3065 3065 3065 3063 3061 3059 3057 3054 3051 3046 3041 3037 3032 3028 3023 3019 3014 3010 3007 3004 3001 2997 2995 2994 2991 2989 2987 2984 2983 2980 2978 2976 2975 2973 2972 2970 2969 2966 2964 2963 2961 2958 2957 2954 2951 2945 2941 2938 2933 2929 2926 2923
3059 3059 3060 3061 3060 3058 3056 3055 3052 3049 3046 3042 3037 3031 3028 3024 3019 3015 3011 3007 3004 3002 2999 2995 2992 2990 2988 2986 2984 2983 2980 2977 2975 2974 2972 2971 2970 2968 2968 2967 2964 2964 2961 2958 2957 2954 2950 2945 2943 2940 2935 2931 2928 2924
3053 3053 3055 3055 3055 3053 3051 3050 3047 3044 3040 3037 3032 3027 3023 3019 3016 3010 3007 3003 3000 2998 2997 2995 2990 2987 2985 2984 2983 2980 2977 2974 2971 2969 2968 2968 2968 2966 2965 2965 2964 2962 2960 2957 2955 2951 2948 2945 2942 2937 2935 2932 2928 2924
3046 3048 3051 3051 3050 3048 3047 3045 3043 3039 3036 3031 3027 3024 3019 3016 3011 3007 3003 2999 2996 2996 2993 2990 2987 2985 2983 2982 2980 2978 2976 2972 2967 2966 2965 2965 2964 2965 2962 2961 2960 2959 2957 2955 2952 2950 2946 2942 2938 2935 2932 2929 2926 2921
3041 3045 3046 3046 3044 3043 3042 3040 3038 3035 3030 3026 3023 3019 3016 3011 3006 3002 2999 2997 2993 2991 2989 2987 2985 2983 2981 2979 2978 2976 2974 2970 2966 2963 2962 2961 2961 2962 2960 2958 2958 2957 2955 2952 2950 2948 2945 2941 2937 2934 2931 2927 2924 2921
3038 3040 3041 3041 3040 3039 3037 3035 3032 3028 3025 3021 3018 3015 3011 3007 3003 3000 2997 2994 2991 2988 2987 2983 2982 2981 2978 2977 2976 2975 2973 2970 2967 2962 2960 2959 2958 2958 2956 2956 2956 2955 2953 2952 2948 2945 2944 2940 2936 2934 2930 2926 2924 2921
3034 3036 3036 3035 3035 3034 3032 3030 3026 3023 3020 3016 3013 3010 3006 3002 2998 2995 2992 2989 2987 2986 2986 2984 2983 2981 2979 2975 2974 2974 2972 2969 2967 2964 2961 2957 2956 2954 2954 2954 2952 2950 2950 2947 2946 2943 2940 2938 2936 2933 2929 2927 2925 2923
3030 3032 3032 3031 3030 3029 3027 3024 3021 3017 3014 3012 3008 3004 3002 2998 2994 2992 2989 2987 2985 2987 2984 2983 2982 2980 2978 2975 2973 2973 2972 2970 2968 2965 2963 2961 2956 2955 2953 2950 2949 2947 2946 2945 2944 2942 2940 2938 2936 2933 2931 2929 2928 2926
3026 3026 3027 3026 3026 3024 3022 3019 3015 3013 3010 3007 3004 3000 2995 2994 2990 2988 2985 2985 2984 2984 2982 2981 2980 2979 2978 2974 2972 2973 2971 2969 2968 2968 2964 2963 2959 2956 2952 2949 2948 2947 2945 2944 2943 2943 2942 2941 2938 2937 2935 2934 2933 2932
3021 3021 3022 3022 3022 3019 3016 3014 3011 3009 3007 3003 2998 2996 2992 2989 2987 2985 2985 2986 2985 2984 2982 2981 2979 2977 2976 2974 2972 2972 2970 2969 2969 2970 2967 2965 2962 2957 2954 2951 2949 2948 2947 2947 2947 2947 2947 2945 2944 2943 2942 2941 2941 2940
3016 3017 3017 3017 3016 3014 3012 3009 3007 3005 3002 2999 2996 2991 2988 2987 2987 2987 2985 2985 2984 2983 2980 2977 2977 2975 2974 2972 2971 2971 2970 2970 2969 2969 2968 2967 2964 2960 2957 2955 2953 2952 2951 2951 2952 2952 2951 2951 2951 2950 2950 2948 2947 2946
3012 3012 3013 3011 3010 3008 3007 3005 3003 3001 2998 2995 2992 2988 2988 2988 2987 2986 2985 2984 2982 2978 2975 2973 2971 2972 2971 2972 2971 2971 2970 2970 2970 2969 2970 2969 2966 2963 2962 2960 2959 2958 2957 2957 2957 2957 2957 2957 2957 2956 2956 2955 2954 2954
3007 3008 3006 3005 3004 3003 3003 3001 2999 2998 2995 2992 2990 2989 2989 2988 2987 2985 2981 2976 2972 2968 2967 2967 2967 2969 2969 2970 2970 2970 2970 2970 2969 2970 2971 2970 2968 2967 2966 2965 2964 2963 2963 2963 2962 2962 2963 2963 2962 2962 2962 2961 2959 2959
3004 3002 3001 3001 3000 2999 2999 2997 2995 2994 2993 2991 2990 2990 2989 2987 2984 2979 2974 2968 2965 2964 2964 2965 2966 2968 2968 2969 2969 2969 2970 2969 2968 2970 2971 2970 2970 2970 2970 2970 2969 2968 2967 2967 2967 2967 2968 2967 2967 2966 2966 2966 2965 2964
3000 2999 2999 2998 2997 2996 2994 2993 2993 2991 2989 2990 2989 2988 2987 2984 2980 2975 2970 2964 2963 2963 2964 2965 2965 2966 2967 2967 2967 2967 2968 2968 2969 2970 2971 2971 2972 2974 2975 2973 2972 2972 2971 2971 2971 2972 2971 2971 2972 2971 2970 2970 2970 2969
2995 2996 2996 2995 2994 2992 2991 2991 2990 2987 2987 2988 2987 2984 2983 2980 2976 2972 2967 2963 2962 2963 2964 2964 2964 2965 2966 2965 2965 2966 2966 2967 2969 2970 2972 2973 2974 2977 2977 2977 2977 2977 2976 2976 2976 2976 2976 2976 2976 2974 2974 2974 2974 2973
2993 2994 2994 2993 2990 2989 2989 2988 2986 2987 2986 2985 2983 2981 2979 2977 2973 2967 2963 2961 2961 2962 2963 2964 2963 2963 2964 2964 2964 2965 2965 2967 2970 2972 2974 2976 2977 2978 2980 2979 2979 2979 2979 2979 2978 2979 2979 2978 2977 2977 2977 2977 2977 2977
2991 2991 2990 2989 2989 2987 2985 2985 2986 2985 2984 2983 2981 2979 2977 2974 2971 2966 2962 2959 2960 2961 2962 2962 2962 2962 2963 2963 2963 2964 2967 2969 2972 2974 2976 2978 2979 2981 2982 2983 2982 2981 2981 2980 2980 2980 2979 2978 2978 2979 2979 2979 2979 2979
2989 2989 2987 2986 2985 2983 2982 2984 2984 2983 2981 2981 2978 2977 2975 2972 2969 2967 2963 2959 2959 2960 2960 2960 2960 2961 2961 2962 2963 2965 2968 2971 2973 2976 2978 2980 2982 2983 2984 2984 2984 2983 2982 2981 2981 2980 2979 2979 2980 2980 2980 2980 2981 2981
2986 2986 2985 2984 2982 2982 2982 2982 2983 2982 2979 2978 2976 2975 2973 2971 2969 2967 2963 2959 2958 2958 2958 2958 2959 2959 2959 2960 2963 2966 2969 2972 2975 2977 2980 2982 2984 2984 2985 2985 2985 2984 2984 2983 2982 2980 2981 2981 2981 2981 2982 2982 2982 2983
2984 2983 2981 2979 2980 2981 2981 2982 2982 2980 2979 2977 2974 2972 2971 2969 2967 2964 2960 2957 2954 2954 2954 2955 2956 2958 2958 2960 2964 2967 2970 2973 2976 2979 2981 2983 2984 2985 2985 2986 2986 2986 2985 2984 2984 2984 2984 2985 2985 2985 2985 2985 2984 2985
2981 2980 2979 2980 2979 2980 2982 2980 2979 2977 2976 2976 2974 2972 2970 2968 2965 2962 2959 2955 2952 2950 2950 2952 2954 2956 2959 2962 2966 2969 2972 2974 2977 2980 2982 2984 2985 2986 2986 2986 2987 2987 2987 2987 2987 2987 2986 2986 2986 2986 2986 2987 2987 2988
2978 2979 2979 2978 2978 2979 2978 2978 2977 2976 2975 2975 2973 2970 2968 2966 2964 2961 2959 2956 2953 2950 2949 2950 2953 2957 2961 2964 2967 2970 2973 2976 2978 2980 2982 2984 2985 2986 2987 2987 2988 2988 2988 2988 2989 2988 2988 2988 2988 2988 2988 2988 2988 2988
2980 2979 2979 2977 2976 2975 2974 2974 2975 2974 2973 2972 2970 2968 2967 2965 2963 2961 2959 2958 2956 2954 2954 2955 2958 2960 2963 2966 2969 2972 2974 2977 2979 2981 2982 2984 2985 2986 2987 2988 2989 2989 2989 2990 2990 2990 2989 2989 2989 2989 2988 2988 2988 2988
2977 2976 2977 2975 2973 2972 2972 2972 2972 2971 2970 2969 2967 2966 2965 2964 2962 2961 2960 2959 2958 2958 2958 2960 2961 2963 2966 2968 2971 2973 2975 2977 2979 2981 2982 2984 2985 2987 2987 2988 2989 2989 2990 2990 2990 2989 2989 2989 2988 2988 2988 2988 2988 2988
2976 2975 2973 2972 2970 2969 2968 2968 2968 2968 2967 2966 2965 2964 2963 2962 2962 2962 2960 2959 2959 2960 2960 2961 2963 2964 2967 2969 2971 2973 2975 2977 2979 2981 2982 2983 2985 2986 2988 2988 2989 2989 2989 2990 2990 2990 2990 2990 2990 2990 2990 2989 2988 2988
2973 2971 2970 2969 2966 2965 2965 2964 2964 2963 2963 2963 2963 2962 2962 2961 2961 2961 2960 2959 2960 2960 2961 2962 2963 2965 2967 2968 2970 2972 2974 2975 2977 2979 2981 2983 2984 2985 2986 2987 2988 2988 2989 2989 2990 2990 2989 2989 2989 2989 2988 2987 2987 2986
2969 2968 2967 2964 2962 2961 2960 2960 2959 2959 2960 2960 2960 2959 2959 2959 2959 2959 2959 2959 2959 2960 2960 2961 2963 2964 2966 2967 2969 2971 2972 2974 2976 2978 2980 2981 2983 2984 2985 2986 2986 2987 2987 2988 2988 2988 2987 2987 2986 2986 2986 2985 2984 2984
2966 2963 2961 2960 2958 2957 2957 2956 2955 2955 2955 2956 2956 2956 2955 2955 2955 2956 2956 2957 2958 2958 2959 2960 2961 2962 2964 2965 2967 2969 2971 2972 2974 2976 2978 2979 2981 2982 2983 2983 2984 2984 2985 2985 2985 2985 2985 2985 2984 2984 2983 2982 2982 2981
2960 2958 2957 2956 2954 2953 2952 2951 2951 2950 2950 2950 2950 2951 2951 2951 2951 2951 2952 2953 2954 2955 2956 2957 2958 2960 2962 2963 2965 2967 2968 2970 2972 2973 2975 2976 2977 2978 2979 2980 2981 2981 2981 2981 2982 2982 2981 2981 2981 2980 2980 2979 2978 2977
2956 2955 2954 2952 2951 2949 2948 2947 2946 2945 2944 2944 2944 2944 2944 2945 2946 2947 2947 2948 2949 2950 2951 2952 2954 2956 2958 2960 2962 2963 2965 2967 2968 2970 2971 2973 2974 2975 2976 2976 2977 2977 2978 2978 2978 2978 2977 2977 2977 2976 2976 2975 2974 2972
2952 2951 2950 2948 2947 2946 2945 2943 2941 2940 2939 2938 2937 2937 2938 2939 2940 2941 2942 2943 2944 2944 2945 2947 2948 2951 2953 2955 2957 2959 2961 2963 2965 2966 2967 2968 2969 2970 2971 2972 2972 2973 2973 2973 2973 2973 2973 2973 2972 2972 2971 2970 2968 2967